Three Rivers, MI

4:06 PM EST on February 14, 2016 (GMT -0500)
Three Rivers Municipal-Haines

Weather History for KHAI - May, 2013

Change the Weather History Date:

Friday, May 10, 2013

  Actual Average Record
Temperature  
Mean Temperature 55 °F -  
Max Temperature 65 °F 70 °F 87 °F (1993)
Min Temperature 45 °F 44 °F 26 °F (1966)
Degree Days  
Heating Degree Days 10    
Growing Degree Days 5 (Base 50)    
Moisture  
Dew Point 54 °F    
Average Humidity 92    
Maximum Humidity 100    
Minimum Humidity 74    
Precipitation  
Precipitation 0.00 in - - ()
Sea Level Pressure  
Sea Level Pressure 29.83 in    
Wind  
Wind Speed 6 mph (WNW)    
Max Wind Speed 14 mph    
Max Gust Speed 22 mph    
Visibility 7 miles    
Events Rain    
Averages and records for this station are not official NWS values.
T = Trace of Precipitation, MM = Missing Value Source: NWS Daily Summary

Daily Weather History Graph

Daily Weather History Graph

Search for Another Location

Airport or City:

Trip Planner

Search our weather history database for the weather conditions in past years. The results will help you decide how hot, cold, wet, or windy it might be!

Date:

Astronomy

May. 10, 2013 Rise Set
Actual Time 6:27 AM EDT 8:51 PM EDT
Civil Twilight 5:55 AM EDT 9:22 PM EDT
Nautical Twilight 5:16 AM EDT 10:01 PM EDT
Astronomical Twilight 4:33 AM EDT 10:45 PM EDT
Moon 6:50 AM EDT (5/10) 9:40 PM EDT (5/10)
Length of Visible Light 15h 26m
Length of Day
14h 24m
New Moon, 0% of the Moon is Illuminated
May 10
New Moon
May 18
First Quarter
May 25
Full
May 31
Last Quarter
Jun 8
New

Hourly Weather History & Observations

Time (EDT) Temp. Windchill Dew Point Humidity Pressure Visibility Wind Dir Wind Speed Gust Speed Precip Events Conditions
12:15 AM 60.8 °F - 58.6 °F 93% 29.90 in 10.0 mi Calm Calm - N/A Rain Rain
12:34 AM 60.8 °F - 59.0 °F 94% 29.89 in 10.0 mi NE 3.5 mph - N/A   Light Drizzle
1:15 AM 60.3 °F - 59.0 °F 96% 29.88 in 7.0 mi Calm Calm - N/A Rain Light Rain
2:14 AM 60.1 °F - 58.6 °F 95% 29.85 in 7.0 mi Calm Calm - N/A Rain Light Rain
2:34 AM 59.9 °F - 58.3 °F 94% 29.83 in 5.0 mi ESE 3.5 mph - N/A Rain Rain
2:55 AM 59.4 °F - 58.5 °F 97% 29.82 in 4.0 mi ESE 4.6 mph - N/A Rain Heavy Rain
3:14 AM 59.2 °F - 58.6 °F 98% 29.82 in 5.0 mi ESE 4.6 mph - N/A Rain Rain
3:35 AM 59.0 °F - 58.5 °F 98% 29.80 in 5.0 mi ESE 4.6 mph - N/A Rain Light Rain
3:54 AM 58.8 °F - 58.1 °F 97% 29.79 in 3.0 mi East 4.6 mph - N/A   Drizzle
4:14 AM 58.6 °F - 58.3 °F 99% 29.79 in 3.0 mi East 4.6 mph - N/A Rain Light Rain
4:35 AM 58.6 °F - 58.5 °F 99% 29.79 in 4.0 mi South 3.5 mph - N/A   Light Drizzle
4:54 AM 59.0 °F - 59.0 °F 100% 29.79 in 5.0 mi SSW 4.6 mph - N/A   Light Drizzle
5:15 AM 59.4 °F - 59.2 °F 99% 29.78 in 5.0 mi SW 5.8 mph - N/A   Overcast
5:35 AM 59.9 °F - 59.5 °F 99% 29.78 in 4.0 mi SW 8.1 mph - N/A   Overcast
5:54 AM 60.1 °F - 59.9 °F 99% 29.77 in 5.0 mi SW 4.6 mph - N/A   Overcast
6:15 AM 60.3 °F - 59.9 °F 99% 29.77 in 5.0 mi SW 5.8 mph - N/A   Overcast
6:35 AM 60.4 °F - 60.1 °F 99% 29.77 in 5.0 mi SW 4.6 mph - N/A   Overcast
6:54 AM 60.8 °F - 60.1 °F 97% 29.77 in 4.0 mi SW 3.5 mph - N/A   Overcast
7:15 AM 60.8 °F - 60.3 °F 98% 29.78 in 3.0 mi SW 8.1 mph - N/A   Overcast
7:35 AM 61.0 °F - 60.4 °F 98% 29.79 in 3.0 mi WSW 5.8 mph - N/A   Overcast
8:15 AM 61.7 °F - 60.1 °F 94% 29.79 in 7.0 mi SW 8.1 mph - N/A   Overcast
8:34 AM 61.9 °F - 60.3 °F 94% 29.79 in 7.0 mi SW 6.9 mph - N/A   Overcast
9:15 AM 61.2 °F - 59.9 °F 96% 29.79 in 5.0 mi SW 8.1 mph - N/A   Drizzle
9:34 AM 61.2 °F - 59.9 °F 96% 29.79 in 7.0 mi WSW 6.9 mph - N/A   Overcast
9:55 AM 61.9 °F - 60.4 °F 95% 29.79 in 4.0 mi SW 9.2 mph - N/A   Overcast
10:15 AM 61.7 °F - 59.9 °F 94% 29.79 in 5.0 mi SW 9.2 mph - N/A   Overcast
10:34 AM 61.9 °F - 59.7 °F 93% 29.79 in 7.0 mi West 6.9 mph - N/A   Overcast
10:55 AM 63.3 °F - 59.9 °F 89% 29.79 in 10.0 mi West 12.7 mph 17.3 mph N/A   Overcast
11:14 AM 63.5 °F - 59.2 °F 86% 29.80 in 10.0 mi West 10.4 mph 21.9 mph N/A   Overcast
11:35 AM 64.4 °F - 59.2 °F 83% 29.79 in 10.0 mi West 10.4 mph 18.4 mph N/A   Overcast
11:55 AM 62.8 °F - 57.7 °F 84% 29.80 in 10.0 mi WSW 12.7 mph 19.6 mph N/A   Overcast
12:14 PM 63.1 °F - 58.1 °F 84% 29.80 in 10.0 mi WSW 10.4 mph 20.7 mph N/A   Overcast
12:35 PM 63.9 °F - 57.7 °F 80% 29.81 in 10.0 mi WSW 12.7 mph 19.6 mph N/A   Mostly Cloudy
1:14 PM 63.9 °F - 56.8 °F 78% 29.81 in 10.0 mi WSW 9.2 mph - N/A   Overcast
1:35 PM 64.2 °F - 56.1 °F 75% 29.81 in 10.0 mi WSW 10.4 mph 17.3 mph N/A   Overcast
1:54 PM 64.0 °F - 56.1 °F 75% 29.81 in 10.0 mi West 11.5 mph 16.1 mph N/A   Overcast
2:15 PM 65.1 °F - 56.7 °F 74% 29.81 in 10.0 mi West 13.8 mph - N/A   Mostly Cloudy
2:35 PM 63.3 °F - 56.1 °F 77% 29.82 in 10.0 mi WNW 12.7 mph - N/A   Mostly Cloudy
2:54 PM 62.6 °F - 55.2 °F 77% 29.82 in 10.0 mi West 10.4 mph - N/A   Mostly Cloudy
3:15 PM 63.0 °F - 55.4 °F 76% 29.82 in 10.0 mi WNW 11.5 mph - N/A   Mostly Cloudy
3:34 PM 59.2 °F - 53.2 °F 81% 29.83 in 10.0 mi NW 10.4 mph - N/A   Overcast
3:55 PM 57.2 °F - 52.7 °F 85% 29.83 in 10.0 mi NW 9.2 mph - N/A   Overcast
4:15 PM 56.3 °F - 52.3 °F 87% 29.83 in 10.0 mi NNW 10.4 mph - N/A   Overcast
4:34 PM 53.6 °F - 50.5 °F 89% 29.83 in 10.0 mi North 8.1 mph - N/A   Overcast
4:55 PM 50.7 °F - 49.1 °F 94% 29.84 in 3.0 mi North 9.2 mph - N/A   Overcast
5:15 PM 50.0 °F - 48.9 °F 96% 29.84 in 1.8 mi North 8.1 mph - N/A   Overcast
5:34 PM 49.5 °F - 48.6 °F 97% 29.84 in 2.5 mi North 8.1 mph - N/A   Overcast
5:55 PM 49.1 °F - 47.8 °F 95% 29.84 in 4.0 mi North 8.1 mph - N/A   Overcast
6:14 PM 48.2 °F - 47.3 °F 97% 29.85 in 4.0 mi North 9.2 mph - N/A   Overcast
6:34 PM 47.5 °F - 46.4 °F 96% 29.85 in 5.0 mi North 4.6 mph - N/A   Overcast
6:55 PM 46.6 °F - 45.3 °F 95% 29.86 in 5.0 mi North 8.1 mph - N/A   Overcast
7:14 PM 46.8 °F - 45.5 °F 95% 29.86 in 3.0 mi North 5.8 mph - N/A   Overcast
7:35 PM 46.2 °F 42.7 °F 45.0 °F 95% 29.87 in 4.0 mi North 6.9 mph - N/A   Overcast
7:55 PM 46.6 °F - 45.1 °F 95% 29.88 in 5.0 mi North 5.8 mph - N/A   Overcast
8:14 PM 46.0 °F 43.1 °F 44.6 °F 95% 29.88 in 10.0 mi North 5.8 mph - N/A   Overcast
8:35 PM 46.0 °F 41.9 °F 44.2 °F 93% 29.89 in 10.0 mi NNW 8.1 mph - N/A   Overcast
8:55 PM 46.0 °F 42.5 °F 43.9 °F 92% 29.90 in 10.0 mi North 6.9 mph - N/A   Overcast
9:14 PM 45.9 °F 42.9 °F 44.1 °F 93% 29.90 in 10.0 mi North 5.8 mph - N/A   Overcast
9:35 PM 45.7 °F 42.7 °F 43.7 °F 93% 29.91 in 10.0 mi NNW 5.8 mph - N/A   Overcast
9:55 PM 45.7 °F 42.7 °F 43.7 °F 93% 29.91 in 10.0 mi North 5.8 mph - N/A   Overcast
10:14 PM 45.9 °F 44.6 °F 43.7 °F 92% 29.92 in 10.0 mi NNW 3.5 mph - N/A   Overcast
10:35 PM 45.9 °F 42.9 °F 43.7 °F 92% 29.92 in 10.0 mi North 5.8 mph - N/A   Overcast
10:54 PM 45.7 °F 42.0 °F 43.5 °F 92% 29.92 in 10.0 mi North 6.9 mph - N/A   Overcast
11:15 PM 45.7 °F 43.4 °F 43.7 °F 93% 29.92 in 10.0 mi NNW 4.6 mph - N/A   Overcast
11:35 PM 45.7 °F 43.4 °F 43.9 °F 93% 29.92 in 10.0 mi North 4.6 mph - N/A   Overcast
11:54 PM 45.7 °F 44.4 °F 43.9 °F 93% 29.92 in 10.0 mi NNW 3.5 mph - N/A   Overcast